星链-30215 (STARLINK-30215 )

导读

STARLINK-30215是美国SpaceX公司星链星座的一颗低轨通信卫星,于2023年7月24日发射入轨。它属于星链全球宽带互联网项目,采用平板设计搭配单太阳翼,搭载氪工质霍尔推进器,具备自主避撞能力,工作于近地轨道,为全球用户提供高速宽带互联网服务,寿命末期会主动离轨再入大气层销毁。

Basic Information
目录编号:
57445
目录名称:
STARLINK-30215
国际标识:
2023-105R
轨道中心:
EARTH
卫星名称:
星链-30215
卫星全名:
星链-30215 (STARLINK-30215 )
卫星状态:
在轨 (已飞行1138 天)
发射日期:
2023-07-24 UTC
国别 :
美国 (US)
星等 :
--
Orbit Information
数据来源 国际轨道数据
星历时间: 2026-09-03T23:15:57+0800
16小时前
查看轨道信息
半长轴: 6861.22km
偏心率: 0.0001004
轨道倾角: 43.004°
近地点辐角 277.805°
升交点赤经 335.142°
平近点角 82.268°
近地点: 482.394km
远地点: 483.772km
周期: 94.267分钟
每日圈数: 15.275687
Detailed Information
固有亮度:
5
最大亮度:
0.3
卫星平台:
Starlink v2.0 mini
覆盖范围:
全球
运营商:
太空探索技术公司
运营商所在国:
美国
制造商(研发单位):
太空探索技术公司
制造商所在国:
美国
使用方式:
暂无
Satellite Introduction
星链(Starlink)计划是由太空探索技术公司(SpaceX)提出的一个巨型低轨卫星互联网星座项目,计划在2019年至2024年间在太空搭建由约1.2万颗卫星组成的“星链”网络,其中1584颗将部署在地球上空550千米处的近地轨道,并从2020年开始工作。该卫星仍在工作。
2D Orbit Map
3D Orbit Map
Orbit Altitude Analysis Chart
Orbit Inclination Analysis Chart
Orbit Comprehensive Analysis Chart
View Comprehensive Chart
Conjunction Data List
Event ID Objects TCA Miss Dist (km) Collision Risk Probability Collision Risk Index (CRI) Action
CDM_260904-090705-744506-429321
2026-09-04T
09:07:01+0000
0.303 km
远距离
4.53564E-4 高风险 0.88
CDM_260904-152805-744505-845421
2026-09-04T
15:28:39+0000
1.948 km
极远距离
2.365301E-6 低风险 0.42
CDM_260904-073205-744506-429321
2026-09-04T
07:32:49+0000
2.469 km
极远距离
1.563999E-6 低风险 0.39